STARLINK-34336

Last updated on Thu Jul 03 2025 00:02:07 GMT+0000 (Coordinated Universal Time)

1 64462U 25130AA 25183.58335648 .00012330 00000+0 73345-4 0 9998 2 64462 53.1535 179.6843 0001066 83.1393 79.8430 15.78486742 3527
UTC large
Height (km)
Speed (km/s)
/
Latitude / Longitude
Inclination (degrees)
Orbital Period (minutes)
Azimuth
Elevation
Range (km)
Doppler Factor

Next 0 passes for location: London (51.5072 / 0.1276)

Sorry there are no passes over London.